ONEWEB-0010 (44058 NORAD) Tracking and Keplerian Element Data

This shows tracking and keplerian element data for the satellite.

Feedback or suggestion? Click here.




ElementValue
Catalog44058
NameONEWEB-0010
Epoch Orbit300
Epoch Day80.95265484
Epoch Year2019
RAAN65.6668
Inclination87.7728
Eccentricity0.0015889
Argument of Perigee181.1142
Mean Anonmoly178.9987
Mean Motion13.70176078
Decay Rate6.5E-07
L11 44058U 19010B 19080.95265484 .00000065 00000-0 57048-4 0 9992
L22 44058 87.7728 65.6668 0015889 181.1142 178.9987 13.70176078 3000

Live tracking and technical data element details for ONEWEB-0010 (NORAD 44058). ONEWEB-0010 can be tracked NOW for your location showing map with azimuth and elevation plus other details from your city location.

Track the satellite on the map from your city or location and see movement details for azimuth, elevation, latitude, longitude, range, height, and movement on the map or in text.







IsCatalogInMostPopularTable: catalog: 44058, numindb: 37
Update: records affected: 1



GetName: 44058 ONEWEB-0010

Hit Count: updated at: Sat, 23 Mar 2019 01:06:44 GMT